timestamp,surface_pressure_avg,surface_temp_avg,battery_voltage,lat,long
2018-05-27 00:00:00+00:00,330.553,6.52,13.13,47.84626,-54.09684
2018-05-27 00:10:00+00:00,315.9013,5.0,13.05,47.84626,-54.09684
2018-05-27 00:20:00+00:00,307.4313,5.0,13.05,47.84626,-54.09684
2018-05-27 00:30:00+00:00,303.4863,5.1,13.05,47.84626,-54.09684
2018-05-27 00:40:00+00:00,290.2631,5.1,13.13,47.84626,-54.09684
2018-05-27 00:50:00+00:00,277.5598,5.03,13.13,47.84626,-54.09684
2018-05-27 01:00:00+00:00,277.5264,4.94,13.05,47.84626,-54.09684
2018-05-27 01:10:00+00:00,272.2031,5.58,12.97,47.84626,-54.09684
2018-05-27 01:20:00+00:00,259.5581,5.0,13.05,47.84626,-54.09684
2018-05-27 01:30:00+00:00,247.4348,5.41,13.05,47.84626,-54.09684
2018-05-27 01:40:00+00:00,242.3264,6.99,13.05,47.84626,-54.09684
2018-05-27 01:50:00+00:00,237.613,6.79,13.05,47.84626,-54.09684
2018-05-27 02:00:00+00:00,235.5998,7.06,13.05,47.84626,-54.09684
2018-05-27 02:10:00+00:00,230.4181,6.82,12.97,47.84626,-54.09684
2018-05-27 02:20:00+00:00,222.4047,6.8,13.05,47.84626,-54.09684
2018-05-27 02:30:00+00:00,216.7931,6.6,13.05,47.84626,-54.09684
2018-05-27 02:40:00+00:00,218.0764,6.53,13.05,47.84626,-54.09684
2018-05-27 02:50:00+00:00,216.8214,6.4,13.05,47.84626,-54.09684
2018-05-27 03:00:00+00:00,216.5415,6.4,12.97,47.84626,-54.09684
2018-05-27 03:10:00+00:00,213.8698,6.4,12.89,47.84626,-54.09684
2018-05-27 03:20:00+00:00,205.3798,6.43,12.97,47.84626,-54.09684
2018-05-27 03:30:00+00:00,205.0047,6.3,12.97,47.84626,-54.09684
2018-05-27 03:40:00+00:00,208.1581,6.27,12.97,47.84626,-54.09684
2018-05-27 03:50:00+00:00,204.5431,6.19,13.05,47.84626,-54.09684
2018-05-27 04:00:00+00:00,201.7114,5.9,12.97,47.84626,-54.09684
2018-05-27 04:10:00+00:00,200.6898,5.95,12.89,47.84626,-54.09684
2018-05-27 04:20:00+00:00,201.7548,5.9,12.97,47.84626,-54.09684
2018-05-27 04:30:00+00:00,202.9364,5.8,12.97,47.84626,-54.09684
2018-05-27 04:40:00+00:00,202.6698,5.7,12.97,47.84626,-54.09684
2018-05-27 04:50:00+00:00,203.0031,5.6,12.97,47.84626,-54.09684
2018-05-27 05:00:00+00:00,210.9548,5.5,12.89,47.84626,-54.09684
2018-05-27 05:10:00+00:00,212.3248,5.4,12.89,47.84626,-54.09684
2018-05-27 05:20:00+00:00,208.4482,5.3,12.89,47.84626,-54.09684
2018-05-27 05:30:00+00:00,221.3314,5.18,12.97,47.84626,-54.09684
2018-05-27 05:40:00+00:00,232.7998,5.1,12.97,47.84626,-54.09684
2018-05-27 05:50:00+00:00,225.2065,5.1,12.97,47.84626,-54.09684
2018-05-27 06:00:00+00:00,222.5697,5.1,12.89,47.84626,-54.09684
2018-05-27 06:10:00+00:00,235.0481,5.1,12.81,47.84626,-54.09684
2018-05-27 06:20:00+00:00,240.6148,5.1,12.89,47.84626,-54.09684
2018-05-27 06:30:00+00:00,236.5048,5.0,12.89,47.84626,-54.09684
2018-05-27 06:40:00+00:00,234.9614,5.0,12.97,47.84626,-54.09684
2018-05-27 06:50:00+00:00,244.3148,5.0,12.97,47.84626,-54.09684
2018-05-27 07:00:00+00:00,249.3981,5.0,12.89,47.84626,-54.09684
2018-05-27 07:10:00+00:00,251.113,4.9,12.81,47.84626,-54.09684
2018-05-27 07:20:00+00:00,255.6314,4.9,12.89,47.84626,-54.09684
2018-05-27 07:30:00+00:00,266.6264,4.9,12.89,47.84626,-54.09684
2018-05-27 07:40:00+00:00,271.2164,4.9,12.89,47.84626,-54.09684
2018-05-27 07:50:00+00:00,277.6114,4.94,12.89,47.84626,-54.09684
2018-05-27 08:00:00+00:00,288.1281,4.9,12.89,47.84626,-54.09684
2018-05-27 08:10:00+00:00,297.473,4.9,12.81,47.84626,-54.09684
2018-05-27 08:20:00+00:00,299.0231,4.9,12.89,47.84626,-54.09684
2018-05-27 08:30:00+00:00,311.813,4.89,12.89,47.84626,-54.09684
2018-05-27 08:40:00+00:00,320.618,4.8,12.97,47.84626,-54.09684
2018-05-27 08:50:00+00:00,324.3146,4.8,12.97,47.84626,-54.09684
2018-05-27 09:00:00+00:00,327.763,4.8,12.97,47.84626,-54.09684
2018-05-27 09:10:00+00:00,333.6829,4.81,12.97,47.84626,-54.09684
2018-05-27 09:20:00+00:00,334.4147,4.85,13.05,47.84626,-54.09684
2018-05-27 09:30:00+00:00,336.8896,4.82,13.05,47.84626,-54.09684
2018-05-27 09:40:00+00:00,343.5829,4.84,13.13,47.84626,-54.09684
2018-05-27 09:50:00+00:00,341.323,4.88,13.13,47.84626,-54.09684
2018-05-27 10:00:00+00:00,335.7063,4.87,13.13,47.84626,-54.09684
2018-05-27 10:10:00+00:00,333.9197,4.8,13.13,47.84626,-54.09684
2018-05-27 10:20:00+00:00,332.578,4.8,13.29,47.84626,-54.09684
2018-05-27 10:30:00+00:00,326.5863,4.8,13.37,47.84626,-54.09684
2018-05-27 10:40:00+00:00,328.3446,4.8,13.44,47.84626,-54.09684
2018-05-27 10:50:00+00:00,333.678,4.79,13.6,47.84626,-54.09684
2018-05-27 11:00:00+00:00,331.833,4.8,13.6,47.84626,-54.09684
2018-05-27 11:10:00+00:00,328.9663,4.8,13.6,47.84626,-54.09684
2018-05-27 11:20:00+00:00,329.6763,4.8,13.68,47.84626,-54.09684
2018-05-27 11:30:00+00:00,325.163,4.8,13.76,47.84626,-54.09684
2018-05-27 11:40:00+00:00,315.9979,4.88,13.92,47.84626,-54.09684
2018-05-27 11:50:00+00:00,315.3563,4.87,14.16,47.84626,-54.09684
2018-05-27 12:00:00+00:00,318.2046,4.85,14.08,47.84626,-54.09684
2018-05-27 12:10:00+00:00,312.4231,4.89,14.08,47.84626,-54.09684
2018-05-27 12:20:00+00:00,302.4547,4.89,14.48,47.84626,-54.09684
2018-05-27 12:30:00+00:00,295.3264,4.9,14.72,47.84626,-54.09684
2018-05-27 12:40:00+00:00,293.9681,4.9,14.56,47.84626,-54.09684
2018-05-27 12:50:00+00:00,288.3798,4.9,15.2,47.84626,-54.09684
2018-05-27 13:00:00+00:00,274.8931,5.0,14.48,47.84626,-54.09684
2018-05-27 13:10:00+00:00,266.4381,5.0,14.4,47.84626,-54.09684
2018-05-27 13:20:00+00:00,261.5414,4.9,14.48,47.84626,-54.09684
2018-05-27 13:30:00+00:00,253.4964,4.9,15.99,47.84626,-54.09684
2018-05-27 13:40:00+00:00,237.4048,5.0,14.56,47.84626,-54.09684
2018-05-27 13:50:00+00:00,228.7581,4.96,15.44,47.84626,-54.09684
2018-05-27 14:00:00+00:00,227.4581,4.95,14.56,47.84626,-54.09684
2018-05-27 14:10:00+00:00,218.5315,4.99,14.48,47.84626,-54.09684
2018-05-27 14:20:00+00:00,205.6414,5.0,14.8,47.84626,-54.09684
2018-05-27 14:30:00+00:00,206.3898,5.0,16.39,47.84626,-54.09684
2018-05-27 14:40:00+00:00,208.3431,5.0,14.64,47.84626,-54.09684
2018-05-27 14:50:00+00:00,197.1915,5.27,15.2,47.84626,-54.09684
2018-05-27 15:00:00+00:00,187.6381,5.4,14.8,47.84626,-54.09684
2018-05-27 15:10:00+00:00,194.4431,5.1,14.56,47.84626,-54.09684
2018-05-27 15:20:00+00:00,190.8731,5.29,14.72,47.84626,-54.09684
2018-05-27 15:30:00+00:00,179.5415,5.3,14.72,47.84626,-54.09684
2018-05-27 15:40:00+00:00,184.1064,5.15,14.88,47.84626,-54.09684
2018-05-27 15:50:00+00:00,193.2065,5.18,14.48,47.84626,-54.09684
2018-05-27 16:00:00+00:00,192.9381,5.53,14.56,47.84626,-54.09684
2018-05-27 16:10:00+00:00,192.3548,5.5,14.56,47.84626,-54.09684
2018-05-27 16:20:00+00:00,195.0848,5.54,14.72,47.84626,-54.09684
2018-05-27 16:30:00+00:00,195.9798,5.6,14.64,47.84626,-54.09684
2018-05-27 16:40:00+00:00,197.4565,5.69,14.48,47.84626,-54.09684
2018-05-27 16:50:00+00:00,201.0032,5.65,14.56,47.84626,-54.09684
2018-05-27 17:00:00+00:00,202.4931,5.5,14.48,47.84626,-54.09684
2018-05-27 17:10:00+00:00,204.2631,5.44,14.32,47.84626,-54.09684
2018-05-27 17:20:00+00:00,210.4681,5.49,14.48,47.84626,-54.09684
2018-05-27 17:30:00+00:00,219.4681,5.5,14.56,47.84626,-54.09684
2018-05-27 17:40:00+00:00,225.0998,5.5,14.48,47.84626,-54.09684
2018-05-27 17:50:00+00:00,226.9281,5.5,14.48,47.84626,-54.09684
2018-05-27 18:00:00+00:00,233.9198,5.2,14.4,47.84626,-54.09684
2018-05-27 18:10:00+00:00,240.1581,5.2,14.32,47.84626,-54.09684
2018-05-27 18:20:00+00:00,239.7464,5.2,14.32,47.84626,-54.09684
2018-05-27 18:30:00+00:00,243.0381,5.2,14.32,47.84626,-54.09684
2018-05-27 18:40:00+00:00,249.6514,5.58,14.32,47.84626,-54.09684
2018-05-27 18:50:00+00:00,252.2064,5.49,14.32,47.84626,-54.09684
2018-05-27 19:00:00+00:00,255.1298,5.2,14.24,47.84626,-54.09684
2018-05-27 19:10:00+00:00,266.1548,5.09,14.16,47.84626,-54.09684
2018-05-27 19:20:00+00:00,272.5864,5.12,14.24,47.84626,-54.09684
2018-05-27 19:30:00+00:00,275.7063,5.42,14.24,47.84626,-54.09684
2018-05-27 19:40:00+00:00,282.5597,5.11,14.24,47.84626,-54.09684
2018-05-27 19:50:00+00:00,290.9797,4.85,14.24,47.84626,-54.09684
2018-05-27 20:00:00+00:00,294.438,4.9,14.08,47.84626,-54.09684
2018-05-27 20:10:00+00:00,302.8813,4.87,14.0,47.84626,-54.09684
2018-05-27 20:20:00+00:00,311.328,4.7,14.08,47.84626,-54.09684
2018-05-27 20:30:00+00:00,317.8029,4.6,14.08,47.84626,-54.09684
2018-05-27 20:40:00+00:00,327.673,4.6,14.08,47.84626,-54.09684
2018-05-27 20:50:00+00:00,342.3062,4.6,14.16,47.84626,-54.09684
2018-05-27 21:00:00+00:00,348.4679,4.6,14.08,47.84626,-54.09684
2018-05-27 21:10:00+00:00,349.968,4.54,14.0,47.84626,-54.09684
2018-05-27 21:20:00+00:00,356.0896,4.5,14.0,47.84626,-54.09684
2018-05-27 21:30:00+00:00,361.428,4.5,14.0,47.84626,-54.09684
2018-05-27 21:40:00+00:00,359.038,4.5,14.0,47.84626,-54.09684
2018-05-27 21:50:00+00:00,357.4313,4.5,14.0,47.84626,-54.09684
2018-05-27 22:00:00+00:00,359.3712,4.5,13.92,47.84626,-54.09684
2018-05-27 22:10:00+00:00,361.3329,4.5,13.76,47.84626,-54.09684
2018-05-27 22:20:00+00:00,359.9113,4.5,13.76,47.84626,-54.09684
2018-05-27 22:30:00+00:00,361.233,4.5,13.76,47.84626,-54.09684
2018-05-27 22:40:00+00:00,363.698,4.5,13.68,47.84626,-54.09684
2018-05-27 22:50:00+00:00,361.1996,4.5,13.68,47.84626,-54.09684
2018-05-27 23:00:00+00:00,357.2863,4.5,13.6,47.84626,-54.09684
2018-05-27 23:10:00+00:00,357.0112,4.5,13.44,47.84626,-54.09684
2018-05-27 23:20:00+00:00,353.3613,4.5,13.44,47.84626,-54.09684
2018-05-27 23:30:00+00:00,346.8896,4.5,13.37,47.84626,-54.09684
2018-05-27 23:40:00+00:00,344.1996,4.48,13.37,47.84626,-54.09684
2018-05-27 23:50:00+00:00,342.1296,4.5,13.37,47.84626,-54.09684
